Date String (YYYY-MM-DD hh:mm:ss) UTC,Instrument flags,absolute air pressure of the measurement (hPa),sample flow rate (lpm),inlet stack bypass flow (lpm),air temperature of the measurement (°C),ambient temperature measured by the external sensor (°C),aerosol sample conditioner tube jacket temperature (°C),OPC LED temperature (°C),internal box temperature (°C),relative humidity of the measurement (%),span deviation,mass concentration of particles derived from Lorenz-Mie calculation of OPC scattering (μg/m³),mass concentration of particles derived from Lorenz-Mie calculation of OPC scattering (μg/m³),mass concentration of particles derived from Lorenz-Mie calculation of OPC scattering (μg/m³)
DateTimeUTC,F1_M11,P_M11,Q1_M11,Q2_M11,T1_M11,T2_M11,T3_M11,T4_M11,T5_M11,U1_M11,ZSPAN_M11,X0_M11,X2_M11,X1_M11
2023-06-06 17:00:00,SystemResetWarning,0831.6,5.00,000.00,029.2,026.5,000.0,037.8,030.5,31.0,0000.5,0010.51,0007.08,0006.48
2023-06-06 17:01:00,SystemResetWarning,0831.6,5.00,000.00,029.2,026.8,000.0,037.8,030.6,31.1,0000.5,0010.58,0007.17,0006.57
2023-06-06 17:02:00,SystemResetWarning,0831.6,5.00,000.00,029.2,027.0,000.0,037.8,030.6,30.7,0000.6,0010.50,0007.15,0006.60
2023-06-06 17:03:00,SystemResetWarning,0831.7,5.00,000.00,029.2,027.2,000.0,037.8,030.6,31.3,0000.5,0010.68,0007.15,0006.64
2023-06-06 17:04:00,SystemResetWarning,0831.7,4.99,000.00,029.2,027.4,000.0,037.8,030.7,30.7,0000.5,0011.38,0007.20,0006.69
2023-06-06 17:05:00,SystemResetWarning,0831.7,5.00,000.00,029.2,027.5,000.0,037.8,030.7,30.6,0000.7,0011.38,0007.22,0006.72
2023-06-06 17:06:00,SystemResetWarning,0831.7,4.99,000.00,029.2,027.6,000.0,037.8,030.7,31.2,0000.8,0011.29,0007.18,0006.70
2023-06-06 17:07:00,SystemResetWarning,0831.7,5.00,000.00,029.3,027.7,000.0,037.8,030.8,30.3,0000.8,0011.25,0007.10,0006.65
2023-06-06 17:08:00,SystemResetWarning,0831.7,5.01,000.00,029.3,027.8,000.0,037.8,030.8,30.6,0000.7,0011.08,0007.00,0006.58
2023-06-06 17:09:00,SystemResetWarning,0831.7,5.00,000.00,029.3,027.9,000.0,037.8,030.9,29.8,0000.8,0010.91,0006.87,0006.47
2023-06-06 17:10:00,SystemResetWarning,0831.7,4.99,000.00,029.3,027.9,000.0,037.8,030.9,28.9,0000.7,0010.79,0006.76,0006.39
2023-06-06 17:11:00,SystemResetWarning,0831.7,4.99,000.00,029.4,028.0,000.0,037.9,030.9,29.6,0000.9,0010.63,0006.66,0006.29
2023-06-06 17:12:00,SystemResetWarning,0831.6,5.00,000.00,029.4,028.0,000.0,037.9,030.9,30.0,0001.3,0010.53,0006.59,0006.22
2023-06-06 17:13:00,SystemResetWarning,0831.6,5.00,000.00,029.4,028.1,000.0,037.9,031.0,30.9,0001.2,0010.53,0006.57,0006.17
2023-06-06 17:14:00,SystemResetWarning,0831.7,5.00,000.00,029.5,028.0,000.0,037.9,031.0,31.5,0000.9,0010.46,0006.54,0006.13
2023-06-06 17:15:00,SystemResetWarning,0831.6,4.99,000.00,029.5,026.4,000.0,037.9,031.1,31.3,0000.7,0009.52,0006.48,0006.07
2023-06-06 17:16:00,SystemResetWarning,0831.6,5.00,000.00,029.5,025.5,000.0,037.8,031.0,30.5,0000.9,0009.50,0006.43,0006.01
2023-06-06 17:17:00,SystemResetWarning,0831.6,5.01,000.00,029.4,025.7,000.0,037.8,030.9,30.1,0000.8,0009.52,0006.42,0005.97
2023-06-06 17:18:00,SystemResetWarning,0831.6,5.01,000.00,029.4,026.0,000.0,037.8,030.7,31.2,0000.9,0009.50,0006.42,0005.95
2023-06-06 17:19:00,SystemResetWarning,0831.6,4.99,000.00,029.3,026.3,000.0,037.8,030.6,31.0,0001.0,0009.57,0006.44,0005.95
2023-06-06 17:20:00,SystemResetWarning,0831.6,5.00,000.00,029.3,026.6,000.0,037.8,030.6,30.8,0000.8,0009.62,0006.49,0005.99
2023-06-06 17:21:00,SystemResetWarning,0831.6,5.00,000.00,029.3,026.9,000.0,037.8,030.7,30.6,0000.7,0009.70,0006.56,0006.05
2023-06-06 17:22:00,SystemResetWarning,0831.6,5.00,000.00,029.3,027.1,000.0,037.8,030.7,30.8,0000.2,0009.90,0006.63,0006.13
2023-06-06 17:23:00,SystemResetWarning,0831.5,5.00,000.00,029.3,027.3,000.0,037.8,030.7,30.9,-000.1,0010.03,0006.68,0006.19
2023-06-06 17:24:00,SystemResetWarning,0831.6,5.00,000.00,029.3,027.4,000.0,037.8,030.8,31.4,-000.1,0010.21,0006.76,0006.22
2023-06-06 17:25:00,SystemResetWarning,0831.5,4.99,000.00,029.3,027.6,000.0,037.9,030.8,31.4,0000.3,0010.32,0006.84,0006.30
2023-06-06 17:26:00,SystemResetWarning,0831.5,5.00,000.00,029.3,027.7,000.0,037.9,030.8,31.6,0000.8,0010.50,0006.96,0006.39
2023-06-06 17:27:00,SystemResetWarning,0831.6,5.00,000.00,029.4,027.8,000.0,037.9,030.9,31.6,0000.6,0010.67,0007.04,0006.46
2023-06-06 17:28:00,SystemResetWarning,0831.6,4.99,000.00,029.4,027.9,000.0,037.9,030.9,31.9,0000.6,0010.83,0007.11,0006.52
2023-06-06 17:29:00,SystemResetWarning,0831.6,5.00,000.00,029.4,028.0,000.0,037.9,031.0,31.8,0000.6,0010.81,0007.12,0006.58
2023-06-06 17:30:00,SystemResetWarning,0831.6,5.00,000.00,029.4,028.0,000.0,037.9,031.0,32.2,0000.6,0010.80,0007.12,0006.60
2023-06-06 17:31:00,SystemResetWarning,0831.6,4.99,000.00,029.5,027.3,000.0,037.9,031.1,31.3,0000.8,0010.80,0007.11,0006.60
2023-06-06 17:32:00,SystemResetWarning,0831.5,5.00,000.00,029.5,025.4,000.0,037.9,030.9,31.1,0001.2,0010.79,0007.07,0006.56
2023-06-06 17:33:00,SystemResetWarning,0831.5,5.00,000.00,029.4,024.5,000.0,037.8,030.9,31.2,0001.7,0010.73,0007.02,0006.50
2023-06-06 17:34:00,SystemResetWarning,0831.5,5.01,000.00,029.4,024.6,000.0,037.8,030.6,31.3,0001.8,0010.48,0006.96,0006.45
2023-06-06 17:35:00,SystemResetWarning,0831.5,5.01,000.00,029.2,025.0,000.0,037.8,030.4,30.3,0002.0,0010.34,0006.91,0006.44
2023-06-06 17:36:00,SystemResetWarning,0831.5,5.00,000.00,029.2,025.4,000.0,037.8,030.4,31.1,0002.0,0010.35,0006.89,0006.42
2023-06-06 17:37:00,SystemResetWarning,0831.5,5.01,000.00,029.1,025.8,000.0,037.7,030.4,30.8,0001.8,0010.18,0006.81,0006.37
2023-06-06 17:38:00,SystemResetWarning,0831.5,5.00,000.00,029.1,026.2,000.0,037.7,030.4,31.4,0001.8,0010.15,0006.77,0006.31
2023-06-06 17:39:00,SystemResetWarning,0831.5,5.00,000.00,029.1,026.5,000.0,037.7,030.5,31.8,0001.8,0010.02,0006.71,0006.25
2023-06-06 17:40:00,SystemResetWarning,0831.5,5.00,000.00,029.1,026.8,000.0,037.7,030.5,31.4,0001.8,0010.00,0006.68,0006.22
2023-06-06 17:41:00,SystemResetWarning,0831.4,5.00,000.00,029.1,027.0,000.0,037.7,030.6,31.5,0001.9,0010.03,0006.71,0006.21
2023-06-06 17:42:00,SystemResetWarning,0831.4,5.00,000.00,029.1,027.2,000.0,037.7,030.6,31.9,0001.9,0010.02,0006.72,0006.20
2023-06-06 17:43:00,SystemResetWarning,0831.5,5.00,000.00,029.1,027.3,000.0,037.7,030.6,31.4,0001.9,0009.93,0006.69,0006.18
2023-06-06 17:44:00,SystemResetWarning,0831.4,5.00,000.00,029.2,027.5,000.0,037.7,030.7,31.2,0001.6,0009.86,0006.65,0006.17
2023-06-06 17:45:00,SystemResetWarning,0831.5,5.00,000.00,029.2,027.6,000.0,037.7,030.7,31.5,0001.2,0009.98,0006.67,0006.18
2023-06-06 17:46:00,SystemResetWarning,0831.5,4.99,000.00,029.2,027.7,000.0,037.7,030.7,32.1,0001.3,0010.05,0006.68,0006.18
2023-06-06 17:47:00,SystemResetWarning,0831.4,4.99,000.00,029.2,027.8,000.0,037.7,030.8,31.9,0001.2,0009.96,0006.65,0006.17
2023-06-06 17:48:00,SystemResetWarning,0831.4,4.99,000.00,029.3,027.9,000.0,037.8,030.8,32.3,0001.3,0010.19,0006.69,0006.15
2023-06-06 17:49:00,SystemResetWarning,0831.4,5.00,000.00,029.3,027.9,000.0,037.8,030.9,32.1,0001.1,0010.23,0006.68,0006.14
2023-06-06 17:50:00,SystemResetWarning,0831.5,5.00,000.00,029.3,028.0,000.0,037.8,030.9,32.8,0001.4,0010.14,0006.64,0006.13
2023-06-06 17:51:00,SystemResetWarning,0831.5,5.01,000.00,029.4,028.1,000.0,037.8,030.9,32.3,0001.5,0010.11,0006.60,0006.10
2023-06-06 17:52:00,SystemResetWarning,0831.4,5.01,000.00,029.4,028.1,000.0,037.8,031.0,31.9,0001.3,0010.13,0006.61,0006.09
2023-06-06 17:53:00,SystemResetWarning,0831.5,4.99,000.00,029.4,027.1,000.0,037.8,031.0,31.2,0001.3,0010.07,0006.59,0006.10
2023-06-06 17:54:00,SystemResetWarning,0831.4,5.00,000.00,029.4,025.1,000.0,037.8,030.9,31.4,0001.2,0010.13,0006.62,0006.11
2023-06-06 17:55:00,SystemResetWarning,0831.4,5.01,000.00,029.4,024.4,000.0,037.7,030.8,30.6,0000.7,0010.31,0006.68,0006.15
2023-06-06 17:56:00,SystemResetWarning,0831.4,5.01,000.00,029.3,024.5,000.0,037.7,030.4,31.1,0001.2,0010.47,0006.68,0006.17
2023-06-06 17:57:00,SystemResetWarning,0831.4,5.00,000.00,029.1,024.9,000.0,037.7,030.2,31.7,0000.7,0010.50,0006.69,0006.20
2023-06-06 17:58:00,SystemResetWarning,0831.5,5.01,000.00,029.1,025.4,000.0,037.7,030.3,32.4,0000.6,0010.51,0006.70,0006.21
2023-06-06 17:59:00,SystemResetWarning,0831.4,5.00,000.00,029.1,025.8,000.0,037.7,030.3,33.2,0000.7,0010.41,0006.69,0006.22
